CAPE
0 0 0 0 0 0 0 0 0 0 0 0 0 0 0 0 0 0 0 0 0 0
0 0 0 0 0 0 0 0 0 0 0 0 0 0 0 0 0 0 0 0 0 0
0 0 0 0 0 0 0 0 0 0 0 0 0 0 0 0 0 0 0 0 0 0
0 0 0 0 0 0 0 0 0 0 0 0 0 0 0 0 0 0 0 0 0 0
0 0 0 0 0 0 0 0 0 0 0 0 0 0 0 0 0 0 0 0 0 0
0 0 0 0 0 0 0 0 0 0 0 0 0 0 0 0 0 0 0 0 0 0
0 0 0 0 0 0 0 0 0 0 0 0 0 0 0 0 0 0 0 0 0 0
0 0 0 0 0 0 0 0 0 0 0 0 0 0 0 0 0 0 0 0 0 0
0 0 0 0 0 0 0 0 0 0 0 0 0 1 0 0 0 0 0 0 0 0
0 0 0 0 0 0 0 0 0 0 0 0 0 0 0 0 0 0 0 0 0 0
0 0 0 0 0 0 0 0 0 0 0 0 0 0 0 0 0 0 0 0 0 0
0 0 0 0 0 0 0 0 0 0 0 0 0 0 0 0 0 0 0 0 0 0
0 0 0 0 0 0 0 0 0 0 0 0 0 0 0 0 0 0 0 0 0 0
0 0 0 0 0 0 0 0 0 0 0 0 0 0 0 1 0 0 0 0 0 0
CIN
-0 -0 -0 -0 -0 -0 -0 -0 -0 -0 -0 -0 -0 -0 -0 -0 -0 -0 -0 -0 -0 -0
-0 -0 -0 -0 -0 -0 -0 -0 -0 -0 -0 -0 -0 -0 -0 -0 -0 -0 -0 -0 -0 -0
-0 -0 -0 -0 -0 -0 -0 -0 -0 -0 -0 -0 -0 -0 -0 -0 -0 -0 -0 -0 -0 -0
-0 -0 -0 -0 -0 -0 -0 -0 -0 -0 -0 -0 -0 -0 -0 -0 -0 -0 -0 -0 -0 -0
-0 -0 -0 -0 -0 -0 -0 -0 -0 -0 -0 -0 -0 -0 -0 -0 -0 -0 -0 -0 -0 -0
-0 -0 -0 -0 -0 -0 -0 -0 -0 -0 -0 -0 -0 -0 -0 -0 -0 -0 -0 -0 -0 -0
-0 -0 -0 -0 -0 -0 -0 -0 -0 -0 -0 -0 -0 -0 -0 -0 -0 -0 -0 -0 -1 -0
-0 -0 -0 -0 -0 -0 -0 -0 -0 -0 -0 -0 -0 -0 -0 -0 -0 -0 -0 -0 -0 -0
-0 -0 -0 -0 -0 -0 -0 -0 -0 -0 -0 -0 -0 -1 -0 -0 -0 -0 -0 -0 -0 -0
-0 -0 -0 -0 -0 -0 -0 -0 -0 -0 -0 -0 -0 -0 -0 -0 -0 -0 -0 -0 -0 -0
-0 -0 -0 -0 -0 -0 -0 -0 -0 -0 -0 -0 -0 -0 -0 -0 -0 -0 -0 -0 -0 -0
-0 -0 -0 -0 -0 -0 -0 -0 -0 -0 -0 -0 -0 -1 -0 -0 -0 -0 -0 -0 -0 -0
-0 -0 -0 -0 -0 -0 -0 -0 -0 -0 -0 -0 -0 -2 -1 -0 -0 -0 -0 -0 -0 -2
-0 -0 -0 -0 -0 -0 -0 -0 -0 -0 -0 -0 -0 -0 -1 -1 -0 -0 -0 -0 -0 -0
Wind_Speed
23 24 26 27 28 29 29 30 31 31 31 31 31 31 30 29 30 30 30 31 32 33
24 25 26 26 27 28 29 28 29 29 30 29 29 29 29 30 30 29 30 30 31 31
24 25 25 26 27 27 28 27 28 27 28 27 27 28 28 29 30 30 31 30 31 32
22 23 23 25 26 27 27 26 27 26 27 26 27 27 26 28 30 30 31 32 32 33
21 22 22 23 25 25 26 25 26 26 26 26 26 26 26 27 29 30 31 32 33 35
19 20 20 22 23 24 24 24 25 25 25 25 25 24 25 26 28 29 30 32 33 35
18 18 20 21 22 22 22 23 24 24 25 24 24 24 24 26 27 29 30 31 32 34
16 17 18 19 20 21 21 21 22 23 24 24 23 24 24 25 26 28 30 31 32 33
15 16 16 17 18 19 20 20 22 23 24 24 23 23 24 25 25 27 29 30 32 33
13 14 14 15 16 17 18 19 22 23 24 24 23 23 24 24 25 26 28 29 31 32
12 12 13 13 13 15 17 19 21 23 24 24 23 23 22 23 24 25 27 28 29 31
11 11 11 11 11 13 16 18 20 21 23 24 23 22 22 23 24 25 26 27 28 29
9 9 9 10 11 11 15 18 20 21 22 23 23 23 23 23 24 24 25 25 26 27
8 8 10 11 12 11 14 16 19 20 21 22 23 24 24 24 24 24 24 24 25 26
Wind_Direction
352 351 351 349 348 347 348 348 348 349 349 350 352 350 346 345 339 334 327 321 316 311
347 349 349 351 352 350 350 352 353 354 354 352 354 354 353 352 348 346 339 334 328 323
342 346 348 352 353 353 353 356 356 357 355 355 354 352 355 355 353 353 350 342 338 333
343 347 350 353 354 354 355 355 355 358 358 355 349 349 353 355 355 353 351 347 346 340
348 348 350 354 353 354 355 358 356 358 356 353 349 350 354 354 354 353 349 348 349 345
354 353 355 355 354 353 355 360 359 360 358 352 351 351 354 355 354 353 352 349 347 346
347 350 353 357 357 357 359 1 1 359 357 354 356 353 351 351 352 352 352 351 349 346
350 354 359 0 2 2 2 1 1 0 358 357 356 356 352 352 352 350 352 355 355 355
350 353 357 3 3 3 2 2 2 359 357 355 355 358 358 355 352 352 352 354 354 359
352 358 3 5 6 7 7 5 3 2 359 359 357 356 355 353 351 351 351 353 356 359
358 359 1 6 11 12 11 9 7 6 4 359 354 350 348 349 347 348 348 352 355 357
358 1 8 13 22 18 14 9 6 5 5 353 342 346 343 339 342 344 344 346 346 351
9 17 23 19 20 22 19 15 9 8 359 351 346 341 341 337 336 340 340 341 341 342
25 32 23 15 20 39 25 18 11 6 356 349 340 341 342 343 341 341 338 335 336 339